EN

Hourly Weather Aliso Viejo

Today, 21 January, Thursday

Time Temperature Precipitation Wind Pressure Humidity
00:00 +16°C° 0 mm 1 mps 748 mmHg 59%
01:00 +16°C° 0 mm 1 mps 748 mmHg 59%
02:00 +15°C° 0 mm 1 mps 748 mmHg 61%
03:00 +15°C° 0 mm 1 mps 748 mmHg 63%
04:00 +14°C° 0 mm 1 mps 748 mmHg 65%
05:00 +14°C° 0 mm 1 mps 748 mmHg 67%
06:00 +14°C° 0 mm 1 mps 748 mmHg 70%
07:00 +13°C° 0 mm 1 mps 748 mmHg 72%
08:00 +15°C° 0 mm 1 mps 749 mmHg 66%
09:00 +17°C° 0 mm 2 mps 749 mmHg 59%
10:00 +19°C° 0 mm 2 mps 749 mmHg 52%
11:00 +19°C° 0 mm 2 mps 749 mmHg 52%
12:00 +20°C° 0 mm 3 mps 748 mmHg 52%
13:00 +20°C° 0 mm 3 mps 747 mmHg 52%
14:00 +20°C° 0 mm 3 mps 747 mmHg 53%
15:00 +19°C° 0 mm 3 mps 747 mmHg 54%
16:00 +19°C° 0 mm 3 mps 747 mmHg 55%
17:00 +18°C° 0 mm 2 mps 747 mmHg 61%
18:00 +16°C° 0 mm 2 mps 747 mmHg 68%
19:00 +15°C° 0 mm 2 mps 748 mmHg 75%
20:00 +15°C° 0 mm 2 mps 748 mmHg 76%
21:00 +14°C° 0 mm 2 mps 748 mmHg 77%
22:00 +13°C° 0 mm 3 mps 748 mmHg 78%
23:00 +13°C° 0 mm 3 mps 748 mmHg 79%

Tomorrow, 22 January, Friday

Time Temperature Precipitation Wind Pressure Humidity
00:00 +13°C° 0 mm 3 mps 748 mmHg 80%
01:00 +12°C° 0 mm 3 mps 748 mmHg 81%
02:00 +12°C° 0 mm 3 mps 747 mmHg 82%
03:00 +12°C° 0 mm 3 mps 747 mmHg 84%
04:00 +12°C° 0 mm 3 mps 747 mmHg 85%
05:00 +11°C° 0 mm 3 mps 747 mmHg 86%
06:00 +11°C° 0 mm 3 mps 747 mmHg 86%
07:00 +11°C° 0 mm 3 mps 747 mmHg 87%
08:00 +13°C° 0 mm 3 mps 747 mmHg 80%
09:00 +14°C° 0 mm 3 mps 747 mmHg 74%
10:00 +16°C° 0 mm 3 mps 747 mmHg 67%
11:00 +16°C° 0 mm 3 mps 746 mmHg 60%
12:00 +17°C° 0 mm 4 mps 746 mmHg 54%
13:00 +16°C° 0 mm 5 mps 745 mmHg 47%
14:00 +15°C° 0 mm 5 mps 745 mmHg 53%
15:00 +14°C° 0 mm 5 mps 745 mmHg 58%
16:00 +14°C° 0 mm 5 mps 745 mmHg 64%
17:00 +13°C° 0.1 mm 4 mps 745 mmHg 67%
18:00 +13°C° 0.1 mm 4 mps 745 mmHg 70%
19:00 +12°C° 0.1 mm 3 mps 745 mmHg 74%
20:00 +12°C° 0.2 mm 4 mps 745 mmHg 75%
21:00 +12°C° 0.2 mm 4 mps 745 mmHg 76%
22:00 +12°C° 0.2 mm 5 mps 745 mmHg 78%
23:00 +11°C° 0.1 mm 4 mps 745 mmHg 77%

Day after tomorrow, 23 January, Saturday

Time Temperature Precipitation Wind Pressure Humidity
00:00 +11°C° 0.1 mm 4 mps 745 mmHg 77%
01:00 +10°C° 0.1 mm 4 mps 745 mmHg 76%
02:00 +10°C° 0.1 mm 3 mps 745 mmHg 76%
03:00 +10°C° 0.1 mm 3 mps 745 mmHg 76%
04:00 +10°C° 0.1 mm 2 mps 744 mmHg 76%
05:00 +10°C° 0.2 mm 2 mps 745 mmHg 76%
06:00 +10°C° 0.2 mm 3 mps 745 mmHg 76%
07:00 +10°C° 0.2 mm 3 mps 745 mmHg 76%
08:00 +11°C° 0.2 mm 3 mps 745 mmHg 71%
09:00 +12°C° 0.2 mm 3 mps 745 mmHg 67%
10:00 +12°C° 0.2 mm 3 mps 745 mmHg 62%
11:00 +12°C° 0.9 mm 3 mps 745 mmHg 67%
12:00 +11°C° 0.9 mm 4 mps 744 mmHg 72%
13:00 +10°C° 0.9 mm 4 mps 744 mmHg 78%
14:00 +10°C° 0.5 mm 4 mps 744 mmHg 74%
15:00 +10°C° 0.5 mm 3 mps 744 mmHg 70%
16:00 +11°C° 0.5 mm 3 mps 743 mmHg 67%
17:00 +10°C° 0.2 mm 2 mps 744 mmHg 70%
18:00 +9°C° 0.2 mm 2 mps 744 mmHg 74%
19:00 +9°C° 0.2 mm 2 mps 744 mmHg 77%
20:00 +8°C° 0.1 mm 2 mps 744 mmHg 78%
21:00 +8°C° 0.1 mm 2 mps 744 mmHg 78%
22:00 +8°C° 0.1 mm 2 mps 744 mmHg 78%
23:00 +8°C° 0 mm 2 mps 744 mmHg 77%

24 January, Sunday

Time Temperature Precipitation Wind Pressure Humidity
00:00 +8°C° 0 mm 2 mps 744 mmHg 77%
01:00 +8°C° 0 mm 2 mps 744 mmHg 76%
02:00 +9°C° 0 mm 1 mps 744 mmHg 76%
03:00 +9°C° 0 mm 1 mps 744 mmHg 77%
04:00 +8°C° 0 mm 1 mps 744 mmHg 78%
05:00 +8°C° 0 mm 1 mps 745 mmHg 78%
06:00 +7°C° 0 mm 0 mps 745 mmHg 78%
07:00 +6°C° 0 mm 0 mps 745 mmHg 78%
08:00 +9°C° 0 mm 1 mps 745 mmHg 72%
09:00 +11°C° 0 mm 1 mps 746 mmHg 66%
10:00 +12°C° 0 mm 1 mps 746 mmHg 60%
11:00 +13°C° 0 mm 2 mps 745 mmHg 58%
12:00 +13°C° 0 mm 3 mps 745 mmHg 56%
13:00 +13°C° 0 mm 3 mps 745 mmHg 54%
14:00 +13°C° 0 mm 3 mps 744 mmHg 57%
15:00 +13°C° 0 mm 3 mps 744 mmHg 60%
16:00 +12°C° 0 mm 4 mps 744 mmHg 63%
17:00 +12°C° 0.1 mm 4 mps 744 mmHg 66%
18:00 +11°C° 0.1 mm 4 mps 744 mmHg 70%
19:00 +11°C° 0.1 mm 4 mps 744 mmHg 73%
20:00 +11°C° 0.2 mm 4 mps 744 mmHg 75%
21:00 +10°C° 0.2 mm 4 mps 744 mmHg 78%
22:00 +10°C° 0.2 mm 4 mps 744 mmHg 80%
23:00 +10°C° 0.4 mm 4 mps 744 mmHg 80%

25 January, Monday

Time Temperature Precipitation Wind Pressure Humidity
00:00 +10°C° 0.4 mm 4 mps 743 mmHg 79%
01:00 +10°C° 0.4 mm 3 mps 742 mmHg 78%
02:00 +8°C° 1.9 mm 4 mps 742 mmHg 81%
03:00 +8°C° 1.9 mm 4 mps 741 mmHg 85%
04:00 +7°C° 1.9 mm 4 mps 741 mmHg 88%
05:00 +7°C° 2.1 mm 4 mps 741 mmHg 86%
06:00 +7°C° 2.1 mm 5 mps 741 mmHg 85%
07:00 +7°C° 2.1 mm 5 mps 741 mmHg 83%
08:00 +8°C° 0.2 mm 6 mps 741 mmHg 77%
09:00 +7°C° 0.2 mm 8 mps 741 mmHg 70%
10:00 +8°C° 0.2 mm 10 mps 740 mmHg 64%
11:00 +8°C° 0.4 mm 9 mps 740 mmHg 62%
12:00 +8°C° 0.4 mm 9 mps 739 mmHg 60%
13:00 +10°C° 0.4 mm 8 mps 739 mmHg 58%
14:00 +9°C° 0.5 mm 8 mps 738 mmHg 58%
15:00 +9°C° 0.5 mm 8 mps 738 mmHg 58%
16:00 +9°C° 0.5 mm 7 mps 737 mmHg 58%
17:00 +8°C° 0.3 mm 7 mps 738 mmHg 58%
18:00 +8°C° 0.3 mm 6 mps 738 mmHg 59%
19:00 +7°C° 0.3 mm 6 mps 738 mmHg 60%
20:00 +7°C° 0 mm 5 mps 739 mmHg 60%
21:00 +7°C° 0 mm 5 mps 739 mmHg 60%
22:00 +7°C° 0 mm 5 mps 740 mmHg 60%
23:00 +6°C° 0 mm 5 mps 740 mmHg 60%

26 January, Tuesday

Time Temperature Precipitation Wind Pressure Humidity
00:00 +6°C° 0 mm 5 mps 741 mmHg 61%
01:00 +6°C° 0 mm 4 mps 741 mmHg 62%
02:00 +6°C° 0 mm 4 mps 742 mmHg 62%
03:00 +5°C° 0 mm 4 mps 742 mmHg 63%
04:00 +5°C° 0 mm 3 mps 742 mmHg 64%
05:00 +5°C° 0 mm 3 mps 743 mmHg 65%
06:00 +5°C° 0 mm 3 mps 744 mmHg 66%
07:00 +4°C° 0 mm 3 mps 744 mmHg 67%
08:00 +7°C° 0 mm 3 mps 745 mmHg 59%
09:00 +7°C° 0 mm 4 mps 746 mmHg 51%
10:00 +10°C° 0 mm 4 mps 746 mmHg 43%
11:00 +11°C° 0 mm 4 mps 747 mmHg 40%
12:00 +11°C° 0 mm 3 mps 747 mmHg 36%
13:00 +12°C° 0 mm 3 mps 747 mmHg 33%
14:00 +12°C° 0 mm 3 mps 747 mmHg 33%
15:00 +12°C° 0 mm 3 mps 747 mmHg 34%
16:00 +12°C° 0 mm 3 mps 747 mmHg 34%
17:00 +11°C° 0 mm 3 mps 748 mmHg 39%
18:00 +10°C° 0 mm 2 mps 749 mmHg 43%
19:00 +10°C° 0 mm 1 mps 749 mmHg 48%
20:00 +8°C° 0 mm 2 mps 750 mmHg 48%
21:00 +8°C° 0 mm 2 mps 750 mmHg 48%
22:00 +8°C° 0 mm 3 mps 750 mmHg 48%
23:00 +8°C° 0 mm 3 mps 750 mmHg 47%
Show more